Home > Weather > Sion > Past weeks

Flag for Switzerland Past Weather in Sion, Valais, Switzerland — Yesterday and Last 2 Weeks

Now
77 °F

Warm.


Feels Like: 79 °F
Forecast: 66 / 92 °F
Wind: 6 mph from Northwest

Location: Sion

Current Time: Jul 29, 2016 at 10:03:24 PM

Latest Report: Jul 29, 2016 at 9:00 PM


Visibility: N/A

Pressure: 29.89 "Hg (28.18 "Hg at 514m altitude)

Humidity: 49%

Dew Point: 56 °F

Location of SionLocation

Past Weather in Sion — Graph

°F

Sion Temperature Yesterday

Maximum temperature yesterday: 82 °F (at 3:00 PM)
Minimum temperature yesterday: 58 °F (at 5:00 AM)
Average temperature yesterday: 70 °F

High & Low Weather Summary for the Past Weeks

 TemperatureHumidityPressure
High94 °F (Jul 20, 5:00 PM)95% (Jul 23, 12:00 AM)30.33 "Hg (Jul 23, 12:00 AM)
Low47 °F (Jul 15, 5:00 AM)25% (Jul 20, 6:00 PM)29.83 "Hg (Jul 21, 6:00 PM)
Average71 °F61%30.06 "Hg
* Reported Jul 14 8:00 PM — Jul 29 8:00 PM, Sion, Weather by CustomWeather, © 2016

Note: Actual official high and low records may vary slightly from our data, if they occured in-between our weather recording intervals... More about our weather records

Advertising

Sion Weather History for the Previous 24 Hours

Scroll right to see more
 ConditionsComfort  
Time TempWeatherWind HumidityBarometerVisibility
8:00 PM
Fri, Jul 29
79 °FPassing clouds.9 mph47%29.87 "Hg22 mi
7:00 PM83 °FWarm.20 mph41%29.85 "HgN/A
6:00 PM84 °FWarm.20 mph41%29.84 "HgN/A
5:00 PM85 °FScattered clouds.16 mph39%29.84 "Hg22 mi
4:00 PM85 °FPleasantly warm.18 mph38%29.85 "HgN/A
3:00 PM83 °FWarm.14 mph40%29.88 "HgN/A
2:00 PM83 °FPassing clouds.12 mph42%29.90 "Hg28 mi
1:00 PM80 °FWarm.8 mph42%29.93 "HgN/A
12:00 PM79 °FWarm.5 mph48%29.96 "HgN/A
11:00 AM75 °FPassing clouds.2 mph52%29.99 "Hg28 mi
10:00 AM70 °FMild.2 mph57%30.02 "HgN/A
9:00 AM68 °FMild.1 mph66%30.05 "HgN/A
8:00 AM64 °FPassing clouds.3 mph72%30.06 "Hg28 mi
7:00 AM61 °FCool.1 mph79%30.08 "HgN/A
6:00 AM60 °FCool.No wind81%30.08 "HgN/A
5:00 AM61 °FClear.No wind86%30.08 "Hg16 mi
4:00 AM62 °FCool.No wind78%30.07 "HgN/A
3:00 AM63 °FMild.1 mph80%30.06 "HgN/A
2:00 AM64 °FClear.1 mph72%30.06 "Hg47 mi
1:00 AM65 °FMild.2 mph69%30.05 "HgN/A
12:00 AM69 °FMild.5 mph58%30.02 "HgN/A
11:00 PM
Thu, Jul 28
71 °FPassing clouds.5 mph55%30.00 "Hg16 mi
10:00 PM73 °FMild.9 mph50%29.98 "HgN/A
Weather by CustomWeather, © 2016

See weather overviewHow to use our weather pages